This demonstration page uses our WeatherBlox Daily Observations layout. Learn more.

Left ArrowRight Arrow

39.92423, -83.80882

Hourly Observations for November 27, 2020

Temp ( °F °C ) Dew Point ( °F °C ) Humidity (%) Winds ( mph kmh ) Pressure ( in mb ) Visibility ( mi km ) Precip ( " mm )
12:56 am 00:56 Cloudy 46 7.8 42 5.6 86 86 SW 6 9 30.11 1020 10 16 N/A
1:56 am 01:56 Cloudy 46 7.8 42 5.6 86 86 WSW 5 7 30.11 1020 10 16 N/A
2:56 am 02:56 Cloudy 46 7.8 42 5.6 86 86 W 5 7 30.12 1020 10 16 N/A
3:56 am 03:56 Cloudy 46 7.8 42 5.6 86 86 WNW 6 9 30.13 1020 10 16 N/A
4:56 am 04:56 Cloudy 45 7.2 41 5 86 86 NNW 6 9 30.13 1020 10 16 N/A
5:56 am 05:56 Cloudy 45 7.2 41 5 86 86 NNW 3 6 30.13 1020 10 16 N/A
6:56 am 06:56 Cloudy 44 6.7 41 5 89 89 N N/A 30.14 1021 10 16 N/A
7:56 am 07:56 Cloudy 44 6.7 42 5.6 93 93 N N/A 30.14 1021 10 16 N/A
8:56 am 08:56 Cloudy 45 7.2 42 5.6 90 90 SW 3 6 30.15 1021 10 16 N/A
9:56 am 09:56 Cloudy 46 7.8 41 5 83 83 WSW 3 6 30.15 1021 10 16 N/A
10:56 am 10:56 Cloudy 48 8.9 41 5 77 77 SW 8 13 30.15 1021 10 16 N/A
11:56 am 11:56 Partly Cloudy 50 10 40 4.4 68 68 W 8 13 30.12 1020 10 16 N/A
12:22 pm 12:22 Mostly Cloudy 50 10 39 4 67 67 SW 8 13 30.11 1020 10 16 N/A
12:56 pm 12:56 Cloudy 49 9.4 39 3.9 69 69 W 3 6 30.10 1019 10 16 N/A
1:38 pm 13:38 Mostly Cloudy 52 11 39 4 62 62 WNW 6 9 30.08 1019 10 16 N/A
1:56 pm 13:56 Mostly Cloudy 52 11.1 39 3.9 61 61 W 8 13 30.07 1018 10 16 N/A
2:56 pm 14:56 Mostly Cloudy 51 10.6 39 3.9 64 64 SW 8 13 30.07 1018 10 16 N/A
3:56 pm 15:56 Cloudy 50 10 39 3.9 66 66 WSW 5 7 30.06 1018 10 16 N/A
4:56 pm 16:56 Cloudy 48 8.9 41 5 77 77 WSW 5 7 30.08 1019 10 16 N/A
5:56 pm 17:56 Cloudy 46 7.8 41 5 83 83 W 6 9 30.09 1019 10 16 N/A
6:56 pm 18:56 Cloudy 46 7.8 40 4.4 79 79 W 3 6 30.09 1019 10 16 N/A
7:56 pm 19:56 Cloudy 45 7.2 41 5 86 86 N N/A 30.09 1019 10 16 N/A
8:56 pm 20:56 Mostly Cloudy 43 6.1 40 4.4 89 89 WNW 5 7 30.08 1019 10 16 N/A
9:56 pm 21:56 Cloudy 42 5.6 40 4.4 92 92 NW 7 11 30.09 1019 10 16 N/A
10:56 pm 22:56 Clear 40 4.4 38 3.3 93 93 NW 5 7 30.09 1019 10 16 N/A
11:56 pm 23:56 Clear 38 3.3 38 3.3 100 100 WNW 6 9 30.09 1019 9 14 N/A

Powered by AerisWeather